• In Uzbekistan
  • List of Countries
  • For 7 days
  • Water Temperature
  • Satellite Maps
  • Weather Map
  • Weather Widgets
  • user-avatar
    Login

    Hourly Weather Glasgow

    Today, 20 September, Thursday

    Time Temperature Precipitation Wind Pressure Humidity
    00:00 +7°C° 0 mm 13 mps 747 mmHg 67%
    01:00 +7°C° 0 mm 13 mps 748 mmHg 68%
    02:00 +7°C° 0 mm 12 mps 748 mmHg 69%
    03:00 +7°C° 0 mm 12 mps 748 mmHg 70%
    04:00 +7°C° 0 mm 12 mps 748 mmHg 70%
    05:00 +7°C° 0 mm 12 mps 748 mmHg 70%
    06:00 +7°C° 0 mm 12 mps 749 mmHg 70%
    07:00 +8°C° 0 mm 12 mps 749 mmHg 67%
    08:00 +9°C° 0 mm 12 mps 749 mmHg 65%
    09:00 +11°C° 0 mm 11 mps 749 mmHg 62%
    10:00 +11°C° 0 mm 11 mps 749 mmHg 59%
    11:00 +12°C° 0 mm 10 mps 750 mmHg 56%
    12:00 +13°C° 0 mm 9 mps 750 mmHg 54%
    13:00 +13°C° 0 mm 8 mps 750 mmHg 56%
    14:00 +12°C° 0 mm 7 mps 750 mmHg 59%
    15:00 +13°C° 0 mm 6 mps 749 mmHg 62%
    16:00 +12°C° 0 mm 5 mps 749 mmHg 66%
    17:00 +11°C° 0 mm 4 mps 748 mmHg 71%
    18:00 +10°C° 0 mm 3 mps 748 mmHg 76%
    19:00 +10°C° 0.1 mm 3 mps 747 mmHg 77%
    20:00 +9°C° 0.1 mm 2 mps 746 mmHg 79%
    21:00 +10°C° 0.1 mm 1 mps 745 mmHg 80%
    22:00 +9°C° 0.6 mm 2 mps 744 mmHg 82%
    23:00 +9°C° 0.6 mm 2 mps 743 mmHg 85%

    Tomorrow, 21 September, Friday

    Time Temperature Precipitation Wind Pressure Humidity
    00:00 +8°C° 0.6 mm 3 mps 742 mmHg 87%
    01:00 +7°C° 0.9 mm 5 mps 742 mmHg 87%
    02:00 +7°C° 0.9 mm 6 mps 741 mmHg 87%
    03:00 +6°C° 0.9 mm 8 mps 741 mmHg 86%
    04:00 +5°C° 0.5 mm 9 mps 741 mmHg 86%
    05:00 +5°C° 0.5 mm 9 mps 741 mmHg 85%
    06:00 +5°C° 0.5 mm 10 mps 741 mmHg 85%
    07:00 +5°C° 0.6 mm 10 mps 742 mmHg 86%
    08:00 +6°C° 0.6 mm 10 mps 742 mmHg 87%
    09:00 +6°C° 0.6 mm 10 mps 743 mmHg 88%
    10:00 +7°C° 0.2 mm 9 mps 744 mmHg 84%
    11:00 +8°C° 0.2 mm 9 mps 745 mmHg 80%
    12:00 +9°C° 0.2 mm 8 mps 746 mmHg 77%
    13:00 +10°C° 0 mm 8 mps 747 mmHg 72%
    14:00 +10°C° 0 mm 8 mps 748 mmHg 66%
    15:00 +11°C° 0 mm 8 mps 748 mmHg 61%
    16:00 +10°C° 0 mm 7 mps 749 mmHg 65%
    17:00 +9°C° 0 mm 6 mps 750 mmHg 69%
    18:00 +8°C° 0 mm 6 mps 751 mmHg 73%
    19:00 +8°C° 0 mm 6 mps 751 mmHg 76%
    20:00 +7°C° 0 mm 6 mps 752 mmHg 79%
    21:00 +5°C° 0 mm 6 mps 753 mmHg 82%
    22:00 +5°C° 0 mm 7 mps 753 mmHg 81%
    23:00 +5°C° 0 mm 8 mps 753 mmHg 80%

    Day after tomorrow, 22 September, Saturday

    Time Temperature Precipitation Wind Pressure Humidity
    00:00 +5°C° 0 mm 8 mps 753 mmHg 79%
    01:00 +5°C° 0 mm 8 mps 754 mmHg 80%
    02:00 +5°C° 0 mm 8 mps 754 mmHg 81%
    03:00 +5°C° 0 mm 8 mps 754 mmHg 82%
    04:00 +5°C° 0 mm 9 mps 754 mmHg 80%
    05:00 +5°C° 0 mm 9 mps 755 mmHg 78%
    06:00 +5°C° 0 mm 9 mps 755 mmHg 77%
    07:00 +6°C° 0 mm 9 mps 755 mmHg 71%
    08:00 +7°C° 0 mm 10 mps 756 mmHg 66%
    09:00 +8°C° 0 mm 10 mps 756 mmHg 61%
    10:00 +10°C° 0 mm 9 mps 757 mmHg 58%
    11:00 +11°C° 0 mm 9 mps 758 mmHg 55%
    12:00 +11°C° 0 mm 8 mps 758 mmHg 53%
    13:00 +11°C° 0 mm 7 mps 758 mmHg 53%
    14:00 +11°C° 0 mm 7 mps 759 mmHg 54%
    15:00 +11°C° 0 mm 7 mps 759 mmHg 55%
    16:00 +10°C° 0 mm 6 mps 759 mmHg 61%
    17:00 +9°C° 0 mm 6 mps 759 mmHg 67%
    18:00 +7°C° 0 mm 5 mps 760 mmHg 73%
    19:00 +7°C° 0 mm 5 mps 760 mmHg 77%
    20:00 +6°C° 0 mm 5 mps 760 mmHg 80%
    21:00 +5°C° 0 mm 5 mps 761 mmHg 84%
    22:00 +5°C° 0 mm 5 mps 761 mmHg 84%
    23:00 +5°C° 0 mm 5 mps 761 mmHg 84%

    23 September, Sunday

    Time Temperature Precipitation Wind Pressure Humidity
    00:00 +5°C° 0 mm 5 mps 761 mmHg 84%
    01:00 +5°C° 0 mm 5 mps 760 mmHg 83%
    02:00 +5°C° 0 mm 5 mps 760 mmHg 83%
    03:00 +5°C° 0 mm 4 mps 760 mmHg 83%
    04:00 +5°C° 0 mm 5 mps 759 mmHg 82%
    05:00 +5°C° 0 mm 5 mps 759 mmHg 81%
    06:00 +4°C° 0 mm 6 mps 758 mmHg 80%
    07:00 +5°C° 0 mm 6 mps 758 mmHg 77%
    08:00 +5°C° 0 mm 7 mps 758 mmHg 73%
    09:00 +6°C° 0 mm 8 mps 758 mmHg 70%
    10:00 +7°C° 0 mm 9 mps 759 mmHg 68%
    11:00 +7°C° 0 mm 9 mps 759 mmHg 65%
    12:00 +7°C° 0 mm 10 mps 759 mmHg 63%
    13:00 +7°C° 0 mm 10 mps 759 mmHg 62%
    14:00 +8°C° 0 mm 11 mps 759 mmHg 60%
    15:00 +8°C° 0 mm 11 mps 760 mmHg 59%
    16:00 +7°C° 0 mm 11 mps 760 mmHg 62%
    17:00 +6°C° 0 mm 10 mps 761 mmHg 65%
    18:00 +5°C° 0 mm 10 mps 762 mmHg 67%
    19:00 +5°C° 0 mm 10 mps 763 mmHg 69%
    20:00 +3°C° 0 mm 9 mps 764 mmHg 71%
    21:00 +3°C° 0 mm 9 mps 765 mmHg 72%
    22:00 +3°C° 0 mm 9 mps 765 mmHg 74%
    23:00 +3°C° 0 mm 9 mps 766 mmHg 75%

    24 September, Monday

    Time Temperature Precipitation Wind Pressure Humidity
    00:00 +2°C° 0 mm 8 mps 767 mmHg 77%
    01:00 +4°C° 0 mm 8 mps 767 mmHg 77%
    02:00 +4°C° 0 mm 7 mps 767 mmHg 76%
    03:00 +4°C° 0 mm 7 mps 767 mmHg 76%
    04:00 +4°C° 0 mm 7 mps 768 mmHg 77%
    05:00 +4°C° 0 mm 7 mps 768 mmHg 78%
    06:00 +5°C° 0 mm 7 mps 768 mmHg 79%
    07:00 +6°C° 0 mm 7 mps 768 mmHg 75%
    08:00 +7°C° 0 mm 8 mps 768 mmHg 71%
    09:00 +10°C° 0 mm 8 mps 768 mmHg 67%
    10:00 +10°C° 0.2 mm 8 mps 768 mmHg 70%
    11:00 +10°C° 0.2 mm 8 mps 768 mmHg 74%
    12:00 +10°C° 0.2 mm 8 mps 769 mmHg 77%
    13:00 +10°C° 0.2 mm 8 mps 769 mmHg 76%
    14:00 +11°C° 0.2 mm 8 mps 769 mmHg 75%
    15:00 +11°C° 0.2 mm 7 mps 769 mmHg 74%
    16:00 +10°C° 0.1 mm 7 mps 769 mmHg 77%
    17:00 +10°C° 0.1 mm 6 mps 769 mmHg 80%
    18:00 +9°C° 0.1 mm 6 mps 770 mmHg 83%
    19:00 +9°C° 0 mm 6 mps 770 mmHg 84%
    20:00 +8°C° 0 mm 6 mps 770 mmHg 86%
    21:00 +8°C° 0 mm 6 mps 771 mmHg 88%
    22:00 +8°C° 0 mm 6 mps 771 mmHg 88%
    23:00 +8°C° 0 mm 6 mps 771 mmHg 88%

    25 September, Tuesday

    Time Temperature Precipitation Wind Pressure Humidity
    00:00 +8°C° 0 mm 6 mps 771 mmHg 87%
    01:00 +8°C° 0 mm 6 mps 771 mmHg 88%
    02:00 +8°C° 0 mm 6 mps 771 mmHg 88%
    03:00 +8°C° 0 mm 6 mps 771 mmHg 88%
    04:00 +8°C° 0 mm 6 mps 771 mmHg 88%
    05:00 +8°C° 0 mm 5 mps 771 mmHg 87%
    06:00 +8°C° 0 mm 5 mps 771 mmHg 86%
    07:00 +9°C° 0 mm 6 mps 771 mmHg 84%
    08:00 +9°C° 0 mm 6 mps 771 mmHg 81%
    09:00 +10°C° 0 mm 7 mps 770 mmHg 79%
    10:00 +10°C° 0.1 mm 7 mps 770 mmHg 80%
    11:00 +10°C° 0.1 mm 7 mps 770 mmHg 81%
    12:00 +9°C° 0.1 mm 8 mps 769 mmHg 82%
    13:00 +10°C° 0 mm 8 mps 769 mmHg 76%
    14:00 +11°C° 0 mm 8 mps 768 mmHg 69%
    15:00 +11°C° 0 mm 8 mps 767 mmHg 63%
    16:00 +11°C° 0 mm 8 mps 767 mmHg 66%
    17:00 +10°C° 0 mm 8 mps 766 mmHg 69%
    18:00 +10°C° 0 mm 8 mps 766 mmHg 73%
    19:00 +10°C° 0 mm 9 mps 765 mmHg 74%
    20:00 +10°C° 0 mm 9 mps 765 mmHg 75%
    21:00 +11°C° 0 mm 10 mps 765 mmHg 76%
    22:00 +11°C° 0 mm 10 mps 764 mmHg 76%
    23:00 +11°C° 0 mm 10 mps 764 mmHg 76%
    Show more